GW1409 Weather Reports


time (UTC)temp
F
wind
direction
speed
knots
gust
knots
rain 1hr
in
rain 24hr
in
rain mn
in
humidity
%
barometer
mb
20260507085643 55 5 0.0 0.9 0.00 0.00 0.00 59 1014.7
20260507085145 54 345 0.0 3.5 0.00 0.00 0.00 60 1014.6
20260507084641 54 345 0.0 3.5 0.00 0.00 0.00 59 1014.6
20260507084139 54 338 0.0 0.0 0.00 0.00 0.00 60 1014.6
20260507083641 54 331 0.0 0.0 0.00 0.00 0.00 62 1014.6
20260507083136 54 355 0.0 2.6 0.00 0.00 0.00 62 1014.5
20260507082618 53 355 0.0 2.6 0.00 0.00 0.00 62 1014.6
20260507082119 53 11 0.0 1.7 0.00 0.00 0.00 62 1014.5
20260507081617 53 11 0.0 1.7 0.00 0.00 0.00 62 1014.5
20260507081105 53 5 0.0 1.7 0.00 0.00 0.00 63 1014.5
20260507080600 53 336 0.0 1.7 0.00 0.00 0.00 63 1014.4
20260507080047 52 223 0.0 0.9 0.00 0.00 0.00 63 1014.4
20260507075543 52 277 0.0 1.7 0.00 0.00 0.00 63 1014.3
20260507075526 52 252 0.0 1.7 0.00 0.00 0.00 63 1014.3
20260507074529 51 313 0.0 0.0 0.00 0.00 0.00 62 1014.3
20260507074025 51 304 0.0 0.0 0.00 0.00 0.00 60 1014.2
20260507073739 51 0 0.0 0.0 0.00 0.00 0.00 59 1014.3
20260507073017 51 5 0.0 0.0 0.00 0.00 0.00 59 1014.2
20260507072515 50 24 0.0 0.0 0.00 0.00 0.00 52 1014.2
20260507072017 50 178 0.0 0.0 0.00 0.00 0.00 50 1014.2
20260507071456 50 148 0.0 0.0 0.00 0.00 0.00 49 1014.2
20260507070958 50 20 0.0 0.0 0.00 0.00 0.00 47 1014.2
20260507070457 50 5 0.0 0.0 0.00 0.00 0.00 43 1014.1
20260507065936 49 338 0.0 0.0 0.00 0.00 0.00 42 1014.2
20260507065409 49 9 0.0 0.0 0.00 0.00 0.00 37 1014.1
20260507064909 49 69 0.0 0.9 0.00 0.00 0.00 29 1014.1
20260507064819 49 5 0.0 0.9 0.00 0.00 0.00 21 1014.1
20260507063834 48 0 0.0 1.7 0.00 0.00 0.00 17 1014.1
20260507063337 48 11 0.0 1.7 0.00 0.00 0.00 11 1014.1
20260507063042 48 327 0.0 0.0 0.00 0.00 0.00 4 1014.0
20260507062318 47 315 0.0 0.0 0.00 0.00 0.00 100 1014.0
20260507061820 47 5 0.0 0.9 0.00 0.00 0.00 100 1013.9
20260507061303 47 311 0.0 0.9 0.00 0.00 0.00 100 1013.8
20260507060753 46 348 0.0 0.0 0.00 0.00 0.00 100 1013.9
20260507060247 46 348 0.0 0.0 0.00 0.00 0.00 100 1013.9
20260507055736 46 348 0.0 0.0 0.00 0.00 0.00 100 1013.9
20260507055216 45 348 0.0 0.0 0.00 0.00 0.00 100 1013.8
20260507054653 45 348 0.0 0.0 0.00 0.00 0.00 100 1013.7
20260507054400 45 348 0.0 0.0 0.00 0.00 0.00 100 1013.7
20260507053903 44 348 0.0 0.0 0.00 0.00 0.00 100 1013.8
20260507053401 44 348 0.0 0.0 0.00 0.00 0.00 100 1013.7
20260507052847 44 348 0.0 0.0 0.00 0.00 0.00 100 1013.7
20260507052129 43 348 0.0 0.0 0.00 0.00 0.00 100 1013.6
20260507051605 43 348 0.0 0.0 0.00 0.00 0.00 100 1013.5
20260507051028 43 348 0.0 0.0 0.00 0.00 0.00 100 1013.5
20260507050514 43 348 0.0 0.0 0.00 0.00 0.00 100 1013.4
20260507050013 43 348 0.0 0.0 0.00 0.00 0.00 100 1013.4
20260507045459 43 348 0.0 0.0 0.00 0.00 0.00 100 1013.4
20260507045220 43 348 0.0 0.0 0.00 0.00 0.00 100 1013.3
20260507044444 42 348 0.0 0.0 0.00 0.00 0.00 100 1013.3
20260507043941 42 348 0.0 0.0 0.00 0.00 0.00 100 1013.2
20260507043440 42 348 0.0 0.0 0.00 0.00 0.00 100 1013.2
20260507042924 42 348 0.0 0.0 0.00 0.00 0.00 100 1013.1
20260507042608 42 348 0.0 0.0 0.00 0.00 0.00 100 1013.1
20260507041804 42 348 0.0 0.0 0.00 0.00 0.00 100 1013.0
20260507041251 42 348 0.0 0.0 0.00 0.00 0.00 100 1013.0
20260507040748 42 348 0.0 0.0 0.00 0.00 0.00 100 1013.0
20260507040504 42 348 0.0 0.0 0.00 0.00 0.00 100 1013.0
20260507035725 42 348 0.0 0.0 0.00 0.00 0.00 100 1012.9
20260507035147 42 348 0.0 0.0 0.00 0.00 0.00 100 1013.0
20260507034635 43 348 0.0 0.0 0.00 0.00 0.00 100 1012.9
20260507034402 43 348 0.0 0.0 0.00 0.00 0.00 100 1012.9
20260507033601 43 348 0.0 0.0 0.00 0.00 0.00 100 1012.8
20260507033053 43 348 0.0 0.0 0.00 0.00 0.00 100 1012.8
20260507032532 43 348 0.0 0.0 0.00 0.00 0.00 100 1012.8
20260507032034 43 348 0.0 0.0 0.00 0.00 0.00 100 1012.8
20260507031529 43 348 0.0 0.0 0.00 0.00 0.00 100 1012.8
20260507031027 44 348 0.0 0.0 0.00 0.00 0.00 100 1012.7
20260507030511 44 348 0.0 0.0 0.00 0.00 0.00 100 1012.7
20260507025958 44 348 0.0 0.0 0.00 0.00 0.00 100 1012.7
20260507025444 44 348 0.0 0.0 0.00 0.00 0.00 100 1012.7
20260507024946 44 348 0.0 0.0 0.00 0.00 0.00 100 1012.7
20260507024440 44 348 0.0 0.0 0.00 0.00 0.00 100 1012.7
20260507023937 44 348 0.0 0.0 0.00 0.00 0.00 100 1012.6
20260507023437 44 348 0.0 0.0 0.00 0.00 0.00 100 1012.6
20260507022938 44 348 0.0 0.0 0.00 0.00 0.00 100 1012.6
20260507022408 44 348 0.0 0.0 0.00 0.00 0.00 100 1012.5
20260507021905 44 348 0.0 0.0 0.00 0.00 0.00 100 1012.6
20260507021341 45 348 0.0 0.0 0.00 0.00 0.00 100 1012.6
20260507020807 45 348 0.0 0.0 0.00 0.00 0.00 100 1012.5
20260507020306 45 348 0.0 0.0 0.00 0.00 0.00 3 1012.5
20260507015800 45 348 0.0 0.0 0.00 0.00 0.00 5 1012.4
20260507015239 45 348 0.0 0.0 0.00 0.00 0.00 8 1012.4
20260507014733 45 348 0.0 0.0 0.00 0.00 0.00 8 1012.3
20260507014231 46 348 0.0 0.0 0.00 0.00 0.00 8 1012.3
20260507013727 46 348 0.0 0.0 0.00 0.00 0.00 8 1012.2
20260507013229 46 348 0.0 0.0 0.00 0.00 0.00 9 1012.2
20260507012724 46 348 0.0 0.0 0.00 0.00 0.00 9 1012.2
20260507012224 46 348 0.0 0.0 0.00 0.00 0.00 10 1012.2
20260507011640 46 348 0.0 0.0 0.00 0.00 0.00 11 1012.3
20260507011119 46 348 0.0 0.0 0.00 0.00 0.00 12 1012.3
20260507010620 46 348 0.0 0.0 0.00 0.00 0.00 13 1012.2
20260507010056 46 348 0.0 0.0 0.00 0.00 0.00 13 1012.2
20260507005539 46 348 0.0 0.0 0.00 0.00 0.00 15 1012.3
20260507005032 46 190 0.0 0.0 0.00 0.00 0.00 15 1012.2
20260507004737 46 9 0.0 0.0 0.00 0.00 0.00 17 1012.2
20260507003945 46 9 0.0 0.0 0.00 0.00 0.00 17 1012.2
20260507003444 46 19 0.0 0.0 0.00 0.00 0.00 17 1012.2
20260507002941 47 22 0.0 0.0 0.00 0.00 0.00 17 1012.2
20260507002442 47 27 0.0 0.0 0.00 0.00 0.00 16 1012.1
20260507001904 47 18 0.0 0.0 0.00 0.00 0.00 16 1012.1
20260507001606 47 11 0.0 0.0 0.00 0.00 0.00 16 1012.1
20260507000837 47 11 0.0 0.0 0.00 0.00 0.00 15 1012.0
20260507000330 47 348 0.0 0.0 0.00 0.00 0.00 14 1012.0
20260506235332 47 18 0.0 0.0 0.00 0.00 0.00 14 1012.1
20260506234817 47 24 0.0 0.0 0.00 0.00 0.00 13 1012.1
20260506234325 47 355 0.0 0.0 0.00 0.00 0.00 12 1012.1
20260506234251 47 288 0.0 0.0 0.00 0.00 0.00 12 1012.2
20260506233516 47 337 0.0 0.0 0.00 0.00 0.00 12 1012.1
20260506232743 47 5 0.0 0.0 0.00 0.00 0.00 14 1012.1
20260506232239 47 5 0.0 0.0 0.00 0.00 0.00 14 1012.1
20260506231950 47 348 0.0 0.0 0.00 0.00 0.00 15 1012.1
20260506231233 47 5 0.0 0.9 0.00 0.00 0.00 15 1012.0
20260506230730 48 332 0.0 0.9 0.00 0.00 0.00 17 1012.0
20260506230223 48 13 0.0 0.9 0.00 0.00 0.00 17 1012.0
20260506225722 48 20 0.0 0.9 0.00 0.00 0.00 17 1012.0
20260506225214 48 30 0.0 0.0 0.00 0.00 0.00 17 1012.0
20260506224655 48 329 0.0 0.0 0.00 0.00 0.00 18 1012.0
20260506224156 48 346 0.0 0.0 0.00 0.00 0.00 19 1011.9
20260506223641 48 346 0.0 0.0 0.00 0.00 0.00 19 1011.9
20260506223136 48 5 0.0 0.9 0.00 0.00 0.00 21 1011.8
20260506222607 49 74 0.0 0.9 0.00 0.00 0.00 22 1011.9
20260506222107 49 13 0.0 0.0 0.00 0.00 0.00 24 1011.9
20260506221608 49 135 0.0 0.0 0.00 0.00 0.00 26 1011.8
20260506221108 49 326 0.0 0.0 0.00 0.00 0.00 29 1011.8
20260506220603 49 331 0.0 0.0 0.00 0.00 0.00 32 1011.7
20260506220056 49 270 0.0 0.0 0.00 0.00 0.00 35 1011.8
20260506215552 49 270 0.0 0.9 0.00 0.00 0.00 38 1011.8
20260506215051 49 355 0.0 0.9 0.00 0.00 0.00 40 1011.7
20260506214543 50 5 0.0 2.6 0.00 0.00 0.00 41 1011.6
20260506214305 50 17 0.0 0.0 0.00 0.00 0.00 45 1011.6
20260506213544 50 336 0.0 0.0 0.00 0.00 0.00 48 1011.5
20260506213040 50 342 0.0 0.0 0.00 0.00 0.00 52 1011.5
20260506212529 50 332 0.0 0.9 0.00 0.00 0.00 54 1011.4
20260506212024 51 283 0.0 0.9 0.00 0.00 0.00 56 1011.4
20260506211514 51 350 0.0 0.0 0.00 0.00 0.00 59 1011.4
20260506210955 51 355 0.0 0.0 0.00 0.00 0.00 60 1011.3
20260506210452 51 32 0.0 1.7 0.00 0.00 0.00 61 1011.3
20260506205944 51 212 0.0 1.7 0.00 0.00 0.00 61 1011.2
20260506205438 51 329 0.0 0.0 0.00 0.00 0.00 62 1011.2
20260506204919 51 30 0.0 1.7 0.00 0.00 0.00 62 1011.2
20260506204419 51 283 0.0 1.7 0.00 0.00 0.00 62 1011.1
20260506203919 51 151 0.0 0.9 0.00 0.00 0.00 62 1011.1
20260506203909 52 255 0.0 0.0 0.00 0.00 0.00 62 1011.1
20260506202919 52 0 0.0 0.0 0.00 0.00 0.00 62 1011.0
20260506202416 52 34 0.0 0.0 0.00 0.00 0.00 62 1011.0
20260506201903 52 78 0.0 0.0 0.00 0.00 0.00 62 1010.9
20260506201403 52 350 0.0 0.0 0.00 0.00 0.00 62 1010.9
20260506201323 53 350 0.0 0.0 0.00 0.00 0.00 62 1010.9
20260506200335 53 350 0.0 0.0 0.00 0.00 0.00 62 1010.9
20260506195831 53 109 0.0 0.9 0.00 0.00 0.00 62 1010.7
20260506195331 53 265 0.0 0.9 0.00 0.00 0.00 62 1010.7
20260506194834 53 346 0.0 0.9 0.00 0.00 0.00 62 1010.6
20260506194331 53 279 0.0 0.9 0.00 0.00 0.00 62 1010.6
20260506194044 53 344 0.0 0.9 0.00 0.00 0.00 62 1010.5
20260506193321 53 254 0.0 0.0 0.00 0.00 0.00 62 1010.5
20260506193035 54 109 0.0 0.0 0.00 0.00 0.00 62 1010.4
20260506192311 54 133 0.0 1.7 0.00 0.00 0.00 62 1010.3
20260506192034 54 355 0.0 1.7 0.00 0.00 0.00 62 1010.3
20260506191308 54 307 0.0 0.0 0.00 0.00 0.00 62 1010.1
20260506190749 54 324 0.0 2.6 0.00 0.00 0.00 61 1010.0
20260506190234 55 355 0.0 2.6 0.00 0.00 0.00 61 1009.9
20260506185728 55 351 0.0 3.5 0.00 0.00 0.00 61 1009.8
20260506185227 55 313 0.0 3.5 0.00 0.00 0.00 61 1009.8
20260506184727 55 287 0.0 1.7 0.00 0.00 0.00 61 1009.7
20260506184435 55 347 0.0 0.9 0.00 0.00 0.00 61 1009.6
20260506183710 55 333 0.0 2.6 0.00 0.00 0.00 61 1009.6
20260506183151 56 348 0.0 2.6 0.00 0.00 0.00 61 1009.6
20260506182909 56 331 0.0 1.7 0.00 0.00 0.00 61 1009.5
20260506182147 56 19 0.0 1.7 0.00 0.00 0.00 61 1009.5
20260506181644 56 43 0.0 1.7 0.00 0.00 0.00 61 1009.4
20260506181404 56 327 0.0 0.9 0.00 0.00 0.00 61 1009.4
20260506180643 56 351 0.0 0.9 0.00 0.00 0.00 61 1009.3
20260506180132 56 348 0.0 4.3 0.00 0.00 0.00 61 1009.3
20260506175603 56 355 0.0 4.3 0.00 0.00 0.00 61 1009.3
20260506175103 56 355 0.0 0.9 0.00 0.00 0.00 61 1009.2
20260506174559 55 208 0.0 0.9 0.00 0.00 0.00 62 1009.1
20260506174048 55 17 0.0 0.9 0.00 0.00 0.00 61 1009.0
20260506173547 55 76 0.0 0.9 0.00 0.00 0.00 61 1009.0
20260506173046 55 350 0.0 0.0 0.00 0.00 0.00 61 1009.0
20260506172536 56 355 0.0 0.0 0.00 0.00 0.00 61 1008.9
20260506172031 56 355 0.0 0.0 0.00 0.00 0.00 61 1008.9
20260506171527 56 329 0.0 0.0 0.00 0.00 0.00 61 1008.9
20260506171018 56 294 0.0 0.0 0.00 0.00 0.00 60 1008.9
20260506170521 56 258 0.0 2.6 0.00 0.00 0.00 60 1008.8
20260506170022 56 215 0.0 2.6 0.00 0.00 0.00 60 1008.8
20260506165506 56 277 0.0 1.7 0.00 0.00 0.00 59 1008.7
20260506164952 56 330 0.0 1.7 0.00 0.00 0.00 59 1008.7
20260506164443 57 297 0.0 0.0 0.00 0.00 0.00 59 1008.7
20260506163936 57 296 0.0 0.0 0.00 0.00 0.00 58 1008.6
20260506163658 57 285 0.0 0.0 0.00 0.00 0.00 58 1008.6
20260506162925 57 309 0.0 0.0 0.00 0.00 0.00 57 1008.6
20260506162416 57 309 0.0 0.0 0.00 0.00 0.00 56 1008.5
20260506161914 57 250 0.0 0.0 0.00 0.00 0.00 56 1008.5
20260506161416 58 20 0.0 0.0 0.00 0.00 0.00 56 1008.5
20260506160912 58 319 0.0 0.0 0.00 0.00 0.00 55 1008.5
20260506160359 58 226 0.0 0.9 0.00 0.00 0.00 55 1008.5
20260506155847 58 284 0.0 0.9 0.00 0.00 0.00 54 1008.5
20260506155600 58 273 0.0 0.0 0.00 0.00 0.00 54 1008.5
20260506154808 58 246 0.0 0.0 0.00 0.00 0.00 55 1008.5
20260506154309 58 348 0.0 0.9 0.00 0.00 0.00 53 1008.6
20260506153747 58 252 0.0 0.9 0.00 0.00 0.00 54 1008.6
20260506153247 58 249 0.0 0.9 0.00 0.00 0.00 54 1008.5
20260506152747 58 279 0.0 0.9 0.00 0.00 0.00 53 1008.5
20260506152245 58 286 0.0 0.9 0.00 0.00 0.00 52 1008.4
20260506151744 58 284 0.0 0.9 0.00 0.00 0.00 52 1008.4
20260506151238 58 296 0.0 0.0 0.00 0.00 0.00 50 1008.4
20260506150742 58 309 0.0 0.0 0.00 0.00 0.00 50 1008.3
20260506150220 58 215 0.0 0.0 0.00 0.00 0.00 50 1008.4
20260506145648 58 318 0.0 0.9 0.00 0.00 0.00 50 1008.4
20260506145139 58 239 0.0 0.0 0.00 0.00 0.00 50 1008.3
20260506144640 58 240 0.0 3.5 0.00 0.00 0.00 49 1008.4
20260506144140 59 251 0.0 3.5 0.00 0.00 0.00 48 1008.4
20260506143638 59 344 0.0 0.0 0.00 0.00 0.00 49 1008.3
20260506143132 59 348 0.0 1.7 0.00 0.00 0.00 47 1008.2
20260506142610 60 296 0.0 1.7 0.00 0.00 0.00 48 1008.3
20260506142110 60 317 0.0 0.0 0.00 0.00 0.00 48 1008.2
20260506141555 60 225 0.0 0.0 0.00 0.00 0.00 48 1008.3
20260506141048 60 227 0.0 0.0 0.00 0.00 0.00 49 1008.2
20260506140539 60 200 0.0 0.0 0.00 0.00 0.00 45 1008.2
20260506140033 60 80 0.0 0.0 0.00 0.00 0.00 46 1008.2
20260506135746 60 294 0.0 3.5 0.00 0.00 0.00 48 1008.2
20260506135011 60 306 0.0 5.2 0.00 0.00 0.00 45 1008.2
20260506134724 60 244 0.0 5.2 0.00 0.00 0.00 44 1008.2
20260506134000 61 314 0.0 3.5 0.00 0.00 0.00 45 1008.2
20260506133443 61 220 0.0 3.5 0.00 0.00 0.00 43 1008.2
20260506132944 62 268 0.0 0.9 0.00 0.00 0.00 46 1008.2
20260506132434 62 156 0.0 0.9 0.00 0.00 0.00 47 1008.1
20260506131924 62 211 0.0 3.5 0.00 0.00 0.00 48 1008.0
20260506131423 62 235 0.0 3.5 0.00 0.00 0.00 46 1008.0
20260506130923 61 294 0.0 1.7 0.00 0.00 0.00 48 1008.2
20260506130422 61 297 0.0 0.9 0.00 0.00 0.00 48 1008.1
20260506125920 61 17 0.0 0.9 0.00 0.00 0.00 49 1008.0
20260506125416 61 204 0.0 0.9 0.00 0.00 0.00 49 1008.0
20260506124908 61 271 0.0 0.9 0.00 0.00 0.00 51 1008.0
20260506124408 60 343 0.0 0.9 0.00 0.00 0.00 49 1008.0
20260506123847 61 279 0.0 2.6 0.00 0.00 0.00 51 1008.1
20260506123346 60 177 0.0 2.6 0.00 0.00 0.00 49 1008.0
20260506122847 60 242 0.0 0.0 0.00 0.00 0.00 50 1008.1
20260506122349 60 319 0.0 0.9 0.00 0.00 0.00 50 1008.0
20260506121843 60 257 0.0 1.7 0.00 0.00 0.00 51 1007.9
20260506121336 60 315 0.0 1.7 0.00 0.00 0.00 51 1008.0
20260506120836 60 344 0.0 2.6 0.00 0.00 0.00 51 1007.9
20260506120336 60 335 0.0 6.1 0.00 0.00 0.00 50 1007.9
20260506115835 60 329 0.0 6.1 0.00 0.00 0.00 49 1007.9
20260506115557 60 260 0.0 1.7 0.00 0.00 0.00 52 1007.8
20260506114835 60 262 0.0 0.9 0.00 0.00 0.00 50 1007.9
20260506114327 60 322 0.0 2.6 0.00 0.00 0.00 52 1007.9
20260506113828 60 12 0.0 3.5 0.00 0.00 0.00 53 1007.9
20260506113315 60 232 0.0 3.5 0.00 0.00 0.00 51 1008.0
20260506112811 60 253 0.0 2.6 0.00 0.00 0.00 51 1008.0
20260506112311 60 281 0.0 2.6 0.00 0.00 0.00 51 1007.9
20260506111813 60 331 0.0 0.9 0.00 0.00 0.00 53 1008.0
20260506111537 59 336 0.0 2.6 0.00 0.00 0.00 55 1007.8
20260506110746 59 281 0.0 2.6 0.00 0.00 0.00 53 1007.9
20260506110243 58 265 0.0 0.9 0.00 0.00 0.00 55 1007.9
20260506105740 58 282 0.0 2.6 0.00 0.00 0.00 55 1007.8
20260506105237 58 46 0.0 5.2 0.00 0.00 0.00 57 1007.9
20260506104736 58 296 0.0 5.2 0.00 0.00 0.00 59 1008.0
20260506104235 58 350 0.0 3.5 0.00 0.00 0.00 59 1007.9
20260506103735 58 350 0.0 2.6 0.00 0.00 0.00 61 1007.8
20260506103236 58 315 0.0 2.6 0.00 0.00 0.00 61 1007.7
20260506102727 58 329 0.0 0.9 0.00 0.00 0.00 61 1007.7
20260506102226 58 95 0.0 4.3 0.00 0.00 0.00 61 1007.8
20260506101729 57 315 0.0 4.3 0.00 0.00 0.00 60 1007.9
20260506101214 57 344 0.0 0.9 0.00 0.00 0.00 61 1007.8
20260506100708 57 340 0.0 1.7 0.00 0.00 0.00 61 1007.9
20260506100209 57 317 0.0 1.7 0.00 0.00 0.00 61 1007.7
20260506095654 57 9 0.0 1.7 0.00 0.00 0.00 62 1007.8
20260506095147 57 250 0.0 2.6 0.00 0.00 0.00 62 1007.7
20260506094643 57 323 0.0 2.6 0.00 0.00 0.00 62 1007.7
20260506094145 57 55 0.0 0.9 0.00 0.00 0.00 61 1007.6
20260506094123 57 328 0.0 0.9 0.00 0.00 0.00 61 1007.6
20260506093143 57 5 0.0 0.9 0.00 0.00 0.00 60 1007.6
20260506092640 57 355 0.0 0.9 0.00 0.00 0.00 58 1007.5
20260506092139 56 241 0.0 3.5 0.00 0.00 0.00 55 1007.6
20260506091635 56 267 0.0 3.5 0.00 0.00 0.00 59 1007.6
20260506091131 56 257 0.0 1.7 0.00 0.00 0.00 59 1007.7
20260506090850 56 355 0.0 1.7 0.00 0.00 0.00 60 1007.6
20260506090132 56 209 0.0 0.9 0.00 0.00 0.00 59 1007.6